When you browse on this site, cookies collect data to enhance your experience and personalize the content and advertising you see.
Visit our Privacy Policy to learn more. By continuing to use the site, you agree to this use of cookies and data.
  • In Hungary
  • List of Countries
  • For 7 days
  • Water Temperature
  • Satellite Maps
  • Weather Map
  • News
  • Weather Widgets
  • user-avatar
    Login

    Hourly Weather Jarim

    Today, 19 December, Wednesday

    Time Temperature Precipitation Wind Pressure Humidity
    00:00 +9°C° 0 mm 1 mps 554 mmHg 51%
    01:00 +9°C° 0 mm 1 mps 554 mmHg 50%
    02:00 +8°C° 0 mm 1 mps 553 mmHg 50%
    03:00 +8°C° 0 mm 1 mps 553 mmHg 48%
    04:00 +8°C° 0 mm 1 mps 553 mmHg 48%
    05:00 +7°C° 0 mm 1 mps 553 mmHg 48%
    06:00 +6°C° 0 mm 2 mps 553 mmHg 48%
    07:00 +8°C° 0 mm 2 mps 554 mmHg 44%
    08:00 +10°C° 0 mm 1 mps 555 mmHg 39%
    09:00 +12°C° 0 mm 1 mps 556 mmHg 34%
    10:00 +13°C° 0 mm 1 mps 556 mmHg 32%
    11:00 +14°C° 0 mm 2 mps 557 mmHg 29%
    12:00 +16°C° 0 mm 2 mps 557 mmHg 27%
    13:00 +16°C° 0 mm 2 mps 557 mmHg 27%
    14:00 +17°C° 0 mm 2 mps 557 mmHg 27%
    15:00 +17°C° 0 mm 3 mps 557 mmHg 27%
    16:00 +16°C° 0 mm 3 mps 556 mmHg 33%
    17:00 +14°C° 0 mm 3 mps 556 mmHg 38%
    18:00 +13°C° 0 mm 3 mps 556 mmHg 43%
    19:00 +14°C° 0 mm 2 mps 556 mmHg 48%
    20:00 +13°C° 0 mm 2 mps 555 mmHg 54%
    21:00 +12°C° 0 mm 1 mps 555 mmHg 59%
    22:00 +12°C° 0 mm 1 mps 555 mmHg 59%
    23:00 +11°C° 0 mm 1 mps 555 mmHg 59%

    Tomorrow, 20 December, Thursday

    Time Temperature Precipitation Wind Pressure Humidity
    00:00 +11°C° 0 mm 1 mps 555 mmHg 59%
    01:00 +10°C° 0 mm 1 mps 554 mmHg 58%
    02:00 +10°C° 0 mm 1 mps 554 mmHg 58%
    03:00 +10°C° 0 mm 1 mps 553 mmHg 58%
    04:00 +9°C° 0 mm 1 mps 553 mmHg 57%
    05:00 +9°C° 0 mm 1 mps 553 mmHg 56%
    06:00 +9°C° 0 mm 1 mps 553 mmHg 55%
    07:00 +10°C° 0 mm 1 mps 554 mmHg 50%
    08:00 +11°C° 0 mm 1 mps 555 mmHg 45%
    09:00 +13°C° 0 mm 1 mps 556 mmHg 41%
    10:00 +14°C° 0 mm 1 mps 557 mmHg 38%
    11:00 +15°C° 0 mm 2 mps 557 mmHg 36%
    12:00 +17°C° 0 mm 2 mps 557 mmHg 34%
    13:00 +17°C° 0 mm 2 mps 557 mmHg 35%
    14:00 +17°C° 0 mm 2 mps 557 mmHg 36%
    15:00 +17°C° 0 mm 3 mps 556 mmHg 37%
    16:00 +16°C° 0.1 mm 3 mps 556 mmHg 44%
    17:00 +14°C° 0.1 mm 3 mps 556 mmHg 50%
    18:00 +13°C° 0.1 mm 3 mps 555 mmHg 57%
    19:00 +13°C° 0.1 mm 2 mps 555 mmHg 60%
    20:00 +13°C° 0.1 mm 2 mps 555 mmHg 64%
    21:00 +12°C° 0.1 mm 2 mps 555 mmHg 67%
    22:00 +12°C° 0.1 mm 1 mps 555 mmHg 67%
    23:00 +12°C° 0.1 mm 1 mps 555 mmHg 67%

    Day after tomorrow, 21 December, Friday

    Time Temperature Precipitation Wind Pressure Humidity
    00:00 +11°C° 0.1 mm 1 mps 554 mmHg 67%
    01:00 +11°C° 0.1 mm 1 mps 554 mmHg 67%
    02:00 +10°C° 0.1 mm 1 mps 553 mmHg 66%
    03:00 +10°C° 0.1 mm 1 mps 553 mmHg 66%
    04:00 +10°C° 0 mm 1 mps 553 mmHg 66%
    05:00 +9°C° 0 mm 1 mps 553 mmHg 66%
    06:00 +9°C° 0 mm 1 mps 553 mmHg 66%
    07:00 +10°C° 0 mm 1 mps 554 mmHg 60%
    08:00 +11°C° 0 mm 1 mps 555 mmHg 53%
    09:00 +12°C° 0 mm 1 mps 556 mmHg 47%
    10:00 +14°C° 0 mm 2 mps 556 mmHg 40%
    11:00 +15°C° 0 mm 2 mps 557 mmHg 33%
    12:00 +17°C° 0 mm 3 mps 557 mmHg 26%
    13:00 +17°C° 0 mm 3 mps 557 mmHg 26%
    14:00 +17°C° 0 mm 4 mps 556 mmHg 26%
    15:00 +18°C° 0 mm 4 mps 556 mmHg 26%
    16:00 +15°C° 0.1 mm 4 mps 555 mmHg 32%
    17:00 +14°C° 0.1 mm 4 mps 555 mmHg 37%
    18:00 +13°C° 0.1 mm 3 mps 554 mmHg 43%
    19:00 +12°C° 0 mm 3 mps 554 mmHg 45%
    20:00 +12°C° 0 mm 2 mps 554 mmHg 48%
    21:00 +12°C° 0 mm 2 mps 554 mmHg 51%
    22:00 +11°C° 0 mm 1 mps 554 mmHg 51%
    23:00 +10°C° 0 mm 1 mps 553 mmHg 52%

    22 December, Saturday

    Time Temperature Precipitation Wind Pressure Humidity
    00:00 +10°C° 0 mm 1 mps 553 mmHg 52%
    01:00 +9°C° 0 mm 1 mps 552 mmHg 50%
    02:00 +9°C° 0 mm 1 mps 552 mmHg 49%
    03:00 +8°C° 0 mm 1 mps 551 mmHg 47%
    04:00 +8°C° 0 mm 1 mps 551 mmHg 45%
    05:00 +7°C° 0 mm 1 mps 551 mmHg 42%
    06:00 +7°C° 0 mm 1 mps 551 mmHg 40%
    07:00 +9°C° 0 mm 1 mps 552 mmHg 35%
    08:00 +10°C° 0 mm 1 mps 554 mmHg 29%
    09:00 +12°C° 0 mm 1 mps 555 mmHg 24%
    10:00 +13°C° 0 mm 2 mps 555 mmHg 22%
    11:00 +15°C° 0 mm 2 mps 556 mmHg 19%
    12:00 +16°C° 0 mm 2 mps 556 mmHg 17%
    13:00 +17°C° 0 mm 3 mps 556 mmHg 19%
    14:00 +17°C° 0 mm 3 mps 556 mmHg 20%
    15:00 +17°C° 0 mm 4 mps 555 mmHg 22%
    16:00 +15°C° 0 mm 4 mps 555 mmHg 28%
    17:00 +14°C° 0 mm 3 mps 555 mmHg 35%
    18:00 +13°C° 0 mm 3 mps 554 mmHg 41%
    19:00 +12°C° 0 mm 3 mps 554 mmHg 44%
    20:00 +12°C° 0 mm 2 mps 554 mmHg 47%
    21:00 +10°C° 0 mm 2 mps 554 mmHg 50%
    22:00 +10°C° 0 mm 2 mps 554 mmHg 50%
    23:00 +10°C° 0 mm 1 mps 553 mmHg 49%

    23 December, Sunday

    Time Temperature Precipitation Wind Pressure Humidity
    00:00 +10°C° 0 mm 1 mps 553 mmHg 49%
    01:00 +9°C° 0 mm 1 mps 552 mmHg 49%
    02:00 +9°C° 0 mm 1 mps 552 mmHg 48%
    03:00 +8°C° 0 mm 1 mps 551 mmHg 48%
    04:00 +8°C° 0 mm 1 mps 551 mmHg 48%
    05:00 +7°C° 0 mm 1 mps 551 mmHg 49%
    06:00 +7°C° 0 mm 1 mps 551 mmHg 50%
    07:00 +8°C° 0 mm 1 mps 553 mmHg 44%
    08:00 +9°C° 0 mm 2 mps 554 mmHg 39%
    09:00 +10°C° 0 mm 2 mps 555 mmHg 33%
    10:00 +13°C° 0 mm 2 mps 556 mmHg 29%
    11:00 +14°C° 0 mm 2 mps 556 mmHg 25%
    12:00 +16°C° 0 mm 2 mps 556 mmHg 21%
    13:00 +16°C° 0 mm 3 mps 556 mmHg 21%
    14:00 +17°C° 0 mm 3 mps 556 mmHg 22%
    15:00 +17°C° 0 mm 3 mps 556 mmHg 22%
    16:00 +16°C° 0 mm 3 mps 556 mmHg 28%
    17:00 +14°C° 0 mm 3 mps 555 mmHg 34%
    18:00 +13°C° 0 mm 3 mps 555 mmHg 39%
    19:00 +12°C° 0 mm 3 mps 555 mmHg 43%
    20:00 +12°C° 0 mm 2 mps 555 mmHg 46%
    21:00 +10°C° 0 mm 2 mps 555 mmHg 50%
    22:00 +11°C° 0 mm 1 mps 554 mmHg 50%
    23:00 +10°C° 0 mm 1 mps 554 mmHg 50%

    24 December, Monday

    Time Temperature Precipitation Wind Pressure Humidity
    00:00 +10°C° 0 mm 1 mps 553 mmHg 50%
    01:00 +9°C° 0 mm 1 mps 553 mmHg 49%
    02:00 +9°C° 0 mm 1 mps 553 mmHg 49%
    03:00 +8°C° 0 mm 1 mps 552 mmHg 49%
    04:00 +8°C° 0 mm 1 mps 552 mmHg 48%
    05:00 +8°C° 0 mm 1 mps 552 mmHg 48%
    06:00 +7°C° 0 mm 1 mps 552 mmHg 48%
    07:00 +9°C° 0 mm 1 mps 553 mmHg 43%
    08:00 +10°C° 0 mm 1 mps 555 mmHg 37%
    09:00 +12°C° 0 mm 2 mps 556 mmHg 32%
    10:00 +13°C° 0 mm 2 mps 556 mmHg 28%
    11:00 +15°C° 0 mm 2 mps 556 mmHg 25%
    12:00 +16°C° 0 mm 2 mps 557 mmHg 21%
    13:00 +17°C° 0 mm 3 mps 556 mmHg 22%
    14:00 +17°C° 0 mm 3 mps 556 mmHg 22%
    15:00 +17°C° 0 mm 3 mps 556 mmHg 23%
    16:00 +16°C° 0 mm 3 mps 556 mmHg 29%
    17:00 +14°C° 0 mm 3 mps 555 mmHg 34%
    18:00 +13°C° 0 mm 3 mps 555 mmHg 40%
    19:00 +13°C° 0 mm 2 mps 555 mmHg 43%
    20:00 +12°C° 0 mm 2 mps 555 mmHg 47%
    21:00 +10°C° 0 mm 2 mps 555 mmHg 50%
    22:00 +11°C° 0 mm 1 mps 554 mmHg 50%
    23:00 +10°C° 0 mm 1 mps 554 mmHg 50%
    Show more